Regional Weather Roundup
Issued by NWS Pendleton, OR

Home | Current Version | Previous Version | Text Only | Print | Product List | Glossary On
Versions: 1 2 3 4 5 6 7 8 9 10 11 12 13 14 15 16 17 18 19 20 21 22 23 24 25 26 27 28 29 30 31 32 33 34 35 36 37 38 39 40 41 42 43 44 45 46 47 48 49 50
000
ASUS46 KPDT 271425
RWRPDT
PENDLETON REGIONAL WEATHER ROUNDUP
NATIONAL WEATHER SERVICE PENDLETON OREGON
600 AM PST FRI FEB 27 2015

NOTE: FAIR INDICATES FEW OR NO CLOUDS BELOW 12,000 FEET WITH NO
SIGNIFICANT WEATHER AND/OR OBSTRUCTIONS TO VISIBILITY.

# INDICATES UNOFFICIAL STATION AND DATA

WAZ520-271510-
EAST SLOPES OF WASHINGTON CASCADES

CITY            SKY/WX      TMP DP  RH  WIND    PRES   REMARKS
#BUMPING DAM    N/A         34  N/A N/A E10     N/A
#CLE ELUM HS    N/A         36  34  92  E1      29.72S
#CLE ELUM LAKE  N/A         32  31  96  CALM    29.75S
#CLIFFDEL 2NW   N/A         36  35  96  CALM    N/A
#GLENWOOD       N/A         39  38  96  CALM    29.72F
#MANASTASH CYN  N/A         32  29  89  CALM    29.73F
#NELSON         N/A         37  35  92  CALM    29.78S
#NELSON 3SW     N/A         33  32  96  CALM    29.97S
#NILE           N/A         38  37  96  CALM    29.01F
#RONALD 2NW     N/A         36  -15 10  CALM    29.62F
#TEANAWAY 4NE   N/A         37  36  96  CALM    N/A
#TROUT LAKE 1NE N/A         39  38  96  CALM    29.72F
$$

WAZ521-271510-
SIMCOE HIGHLANDS

CITY            SKY/WX      TMP DP  RH  WIND    PRES   REMARKS
#BICKLETON HS   N/A         37  36  96  E3      N/A
#CENTERVILLE 4W N/A         41  40  96  E3      29.45F
#CENTERVILLE 1SWN/A         40  38  92  W3      29.69F
#GOLDENDALE     N/A         41  40  96  E1      N/A
#GOLDENDALE 1NE N/A         42  38  86  CALM    N/A
#GOLDENDALE 5WNWN/A         41  39  93  CALM    29.70F
#GOODNOE HILLS  N/A         41  38  89  E3      N/A
#LYLE 6NE       N/A         40  39  96  N1      29.68F
$$

WAZ026-271510-
KITTITAS VALLEY

CITY            SKY/WX      TMP DP  RH  WIND    PRES   REMARKS
ELLENSBURG AP   LGT RAIN    40  36  85  S8      29.75F FOG
#ELLENSBURG CWU N/A         38  36  92  S1      29.72F
#ELLENSBURG 3NE N/A         38  36  92  CALM    29.78S
#ELLENSBURG 1E  N/A         38  36  92  CALM    N/A
#KITTITAS 4N    N/A         40  34  79  CALM    28.07F
#KITTITAS 3S    N/A         39  35  85  E7      29.76F
#THORP 6N       N/A         35  34  96  SE2     29.79F
$$

WAZ027-271510-
YAKIMA VALLEY

CITY            SKY/WX      TMP DP  RH  WIND    PRES   REMARKS
SUNNYSIDE AP    LGT DRIZZLE 43  37  79  E5      29.75F
YAKIMA AIRPORT  RAIN        44  41  89  N3      29.75F FOG
YAKIMA-VAGABOND LGT RAIN    42  38  86  NE3     29.75S
#DONALD 2NE     N/A         43  38  82  W2      28.60F
#MABTON         N/A         42  39  89  E7      29.74F
#NACHES 2SW     N/A         40  38  92  CALM    29.75F
#OUTLOOK DOT    N/A         N/A N/A N/A CALM    N/A
#SELAH 8E       N/A         38  37  96  E8      N/A
#TERRACE HTS    N/A         41  39  93  CALM    29.72F
#TOPPENISH      N/A         42  40  93  CALM    29.68F
#WAPATO 4NE     N/A         43  38  82  W2      28.60F
#WEST VALLEY    N/A         43  41  93  CALM    29.74F
#W YAKIMA       N/A         42  40  93  N1      29.76F
#WHITE SWAN 5E  N/A         41  40  96  CALM    29.77F
#WILEY CITY 3W  N/A         40  36  85  CALM    29.75F
$$

WAZ028-271510-
LOWER COLUMBIA BASIN...WASHINGTON

CITY            SKY/WX      TMP DP  RH  WIND    PRES   REMARKS
HANFORD         CLOUDY      40  37  89  N7      29.78S
PASCO           N/A         40  38  92  NW3     29.79F
PROSSER AWOS    N/A         41  41  100 NE10    29.79S
RICHLAND AWOS   CLOUDY      41  39  93  NW3     29.79F
#BASIN CITY 5SW N/A         39  35  85  N7      29.78F
#CONNELL 5N     N/A         36  32  85  NE10    29.79F
#CONNELL 5NW    N/A         35  32  89  E7      29.75F
#ELTOPIA        N/A         41  36  82  CALM    29.74F
#ELTOPIA 6NW    N/A         38  35  89  E10     28.74F
#KAHLOTUS       N/A         34  32  92  S12     29.80F WCI 25
#KENNEWICK 3S   N/A         39  37  92  CALM    29.78F
#PASCO-BROADMOORN/A         40  38  92  NW1     29.70F
#PATERSON       N/A         43  40  89  CALM    29.73F
#PROSSER        N/A         40  36  85  CALM    29.75F
#SAGEMOOR 2W    N/A         39  35  85  CALM    29.64S
#TOUCHET 2S     N/A         38  36  92  CALM    29.76F
#WEST PASCO     N/A         41  36  82  NW1     29.72F
$$

WAZ029-271510-
FOOTHILLS OF THE BLUES...WASHINGTON

CITY            SKY/WX      TMP DP  RH  WIND    PRES   REMARKS
WALLA WALLA AP  CLOUDY      42  34  73  E6      29.74F
#DAYTON SCHOOL  N/A         35  26  69  N2      29.78F
#LOWDEN 2SE     N/A         39  35  85  CALM    29.73F
#PLEASANT VIEW 1N/A         32  31  96  N1      29.84F
#PRESCOTT       N/A         38  34  85  E1      29.75F
#SUDBURY        N/A         40  N/A N/A CALM    N/A
#WHITMAN COLLEGEN/A         42  36  79  CALM    29.81F
#WAITSBURG 5S   N/A         39  33  79  E7      29.85F
#WAITSBURG 8N   N/A         37  17  44  N6      29.65F
#WALLA WALLA 5E N/A         42  36  79  SE2     N/A
#WALLA WALLA U  N/A         40  37  89  CALM    29.76F
#WHITMAN MISSIONN/A         38  36  92  CALM    29.78F
$$

WAZ030-271510-
BLUE MOUNTAINS...WASHINGTON

CITY            SKY/WX      TMP DP  RH  WIND    PRES   REMARKS
#DIXIE 5SE      N/A         38  28  67  E10     29.65F
#SKI BLUEWOOD   N/A         28  25  88  CALM    29.70F
$$

ORZ009-041-WAZ024-271510-
COLUMBIA RIVER GORGE

CITY            SKY/WX      TMP DP  RH  WIND    PRES   REMARKS
HOOD RIVER AP   LGT RAIN    45  45  100 CALM    29.73S
THE DALLES AP   LGT RAIN    45  42  89  E5      29.73F
#ARLINGTON AIRPON/A         41  40  96  CALM    30.00R
#ARLINGTON HS   N/A         44  41  89  W3      29.67F
#CELILO DOT     N/A         46  41  83  NE6     N/A
#MOSIER 1S      N/A         44  42  93  CALM    29.70F
#MURDOCK        N/A         46  45  96  SW1     29.74F
#RUFUS DOT      N/A         44  41  89  CALM    N/A

$$

ORZ510-271510-
NORTH CENTRAL OREGON

CITY            SKY/WX      TMP DP  RH  WIND    PRES   REMARKS
#CHENOWITH 1W   N/A         41  41  100 S6      N/A
#COW CYN RST AREN/A         38  37  96  S1      N/A
#DUFUR 9E       N/A         40  38  92  SE7     29.75F
#GRASS VALLEY 1SN/A         39  37  92  S3      29.75S
#KENT DOT       N/A         39  36  89  S7      N/A
#MAUPIN SCHOOL  N/A         42  40  93  CALM    29.73F
#MORO SCHOOL    N/A         41  41  100 CALM    29.72F
#SHANIKO 5WSW   N/A         36  33  89  S9      N/A
#SHANIKO 4NW    N/A         36  35  96  S14     29.67F WCI 27
#TYGH VALLEY 2NEN/A         42  40  93  CALM    29.72F
#WAPANITIA AIRPON/A         40  39  96  CALM    29.72F
#WASCO DOT      N/A         43  41  93  E3      N/A
#WASCO AIRPORT  N/A         42  39  89  E7      N/A
#WASCO 5NE      N/A         40  38  92  CALM    29.73F
$$

ORZ511-271510-
CENTRAL OREGON

CITY            SKY/WX      TMP DP  RH  WIND    PRES   REMARKS
BEND AIRPORT    MOCLDY      34  32  92  CALM    29.70F
MADRAS AIRPORT  RAIN        39  39  100 SW13    29.72F WCI 31
PRINEVILLE AP   CLOUDY      36  34  92  CALM    29.71F
REDMOND AIRPORT CLOUDY      36  34  92  E7      29.71F
#BEND 6E        N/A         35  32  89  CALM    29.72S
#BEND 1SW       N/A         35  33  92  W1      N/A
#BEND-AWBREY    N/A         36  34  92  S3      29.72F
#BEND-KIM LN    N/A         38  35  89  SW2     29.67F
#CROOKED RVR RANN/A         38  36  92  SW17G25 29.72F WCI 29
#CULVER         N/A         40  35  82  SW2     29.67F
#LAKE BILLY CHINN/A         39  35  85  E8      29.82F
#POWELL BUTTE 3EN/A         35  35  100 E3      N/A
#POWELL BUTTE   N/A         37  33  85  SW1     29.36F
#PRINEVILLE 3N  N/A         35  34  96  E2      29.71F
#WARM SPRINGS   N/A         40  38  92  CALM    29.70F

$$


ORZ509-271510-
EAST SLOPES OF OREGON CASCADES

CITY            SKY/WX      TMP DP  RH  WIND    PRES   REMARKS
#BLUE BOX PASS  N/A         32  -16 11  CALM    N/A
#CAMP SHERMAN   N/A         35  33  92  CALM    29.71F
#LA PINE DOT    N/A         34  33  96  CALM    N/A
#LA PINE 4NW    N/A         33  30  89  CALM    29.79F
#LAVA BUTTE DOT N/A         33  32  96  CALM    N/A
#MT BACHELOR-MIDN/A         24  23  96  SW29G38 N/A    WCI  7
#SISTERS AIRPOR N/A         36  36  100 CALM    30.17S
#SISTERS ODOT   N/A         36  N/A N/A CALM    N/A
#SISTERS 1NW    N/A         36  34  92  N6      N/A
#SISTERS 3N     N/A         34  30  85  CALM    29.75F
#SUNRIVER       N/A         34  33  96  S2      29.62F
#TUMALO 3W      N/A         34  33  96  SW1     29.60F
#WANOGA BUTTE D N/A         29  28  96  SW2     N/A

$$

ORZ044-271510-
LOWER COLUMBIA BASIN...OREGON

CITY            SKY/WX      TMP DP  RH  WIND    PRES   REMARKS
HERMISTON       CLOUDY      42  38  86  NE7     29.74F
#BOARDMAN 8SW   N/A         41  39  93  NW2     29.74F
#IONE SCHOOL    N/A         43  27  53  CALM    29.72F
#IRRIGON 4NW    N/A         41  41  100 S1      N/A
#UMATILLA SCHOOLN/A         41  41  100 CALM    29.78F
#UMATILLA       N/A         44  37  76  E3      29.72F
$$

ORZ507-271510-
NORTHERN FOOTHILLS OF THE BLUES

CITY            SKY/WX      TMP DP  RH  WIND    PRES   REMARKS
PENDLETON AIRPT CLOUDY      38  34  85  E6      29.72F
#ADAMS 3WNW     N/A         40  35  82  CALM    29.75F
#ATHENA         N/A         42  36  79  E2      29.77F
#HELIX SCHOOL   N/A         40  36  85  E7      29.75F
#HELIX 3N       N/A         40  35  82  E7      29.71F
#HOLDMAN 6E     N/A         40  35  82  E2      29.55F
#M-F FERNDALE   N/A         38  34  85  CALM    29.75F
#M-F GROVE ELEM N/A         45  32  60  E3      29.73F
#M-FREEWATER 5SEN/A         43  35  73  CALM    29.75F
#PENDLETON DNTN N/A         38  31  76  CALM    29.75F
#PDT AQUATIC CTRN/A         39  31  73  CALM    29.75F
#PENDLETON 5NE  N/A         40  36  85  CALM    29.70F
#PDT SUNRIDGE   N/A         36  34  92  CALM    29.74F
#PENDLETON 7NW  N/A         39  34  82  CALM    28.17R
#PILOT ROCK     N/A         37  31  79  CALM    29.75F
#TUTUILLA       N/A         37  35  92  CALM    29.74F
#UMAPINE 2E     N/A         38  35  89  CALM    29.72F
#WESTON SCHOOL  N/A         42  31  65  S5      29.72F

$$

ORZ508-271510-
SOUTHERN FOOTHILLS OF THE BLUES

CITY            SKY/WX      TMP DP  RH  WIND    PRES   REMARKS
LEXINGTON       CLOUDY      43  37  79  S5      29.73F
#AJAX           N/A         40  33  76  CALM    29.67F
#CONDON SCHOOL  N/A         38  37  96  CALM    29.68F
#CONDON 5W      N/A         37  35  92  S2      29.66F
#FOSSIL SCHOOL  N/A         39  37  92  CALM    29.70F
#HEPPNER EOC    N/A         40  35  82  E6      29.68F
#HEPPNER 4NE    N/A         40  35  82  E1      29.72F
#LEXINGTON 2SE  N/A         42  36  79  CALM    29.69F
#MIKKALO        N/A         40  37  89  E1      29.72S
#OLEX 4N        N/A         40  38  92  SE2     29.72S
#RUGGS 5NE      N/A         40  35  82  CALM    29.85F
#RUGGS 2SW      N/A         40  35  82  CALM    29.75F

$$

ORZ502-503-271510-
BLUE MOUNTAINS

CITY            SKY/WX      TMP DP  RH  WIND    PRES   REMARKS
MEACHAM         CLOUDY      33  31  92  CALM    29.70F
#BATTLE MTN DOT N/A         32  32  100 S6      N/A
#HARDMAN 10S    N/A         31  30  96  CALM    29.86F
#HEPPNER 15SE   N/A         32  31  96  CALM    29.57F
#LADD CYN SMT   N/A         34  32  92  SE7     N/A
#LADD CREEK ODOTN/A         33  33  100 CALM    N/A
#LONG CREEK HS  N/A         35  35  100 CALM    29.65F
#N POWDER DOT   N/A         32  32  100 CALM    N/A
#PIKES PEAK     N/A         38  29  70  E7      27.99S
#TOLLGATE       N/A         28  27  96  CALM    29.70F
#TROY SCHOOL    N/A         35  33  92  CALM    29.69F
#UKIAH          N/A         32  30  92  CALM    29.79F
#WESTON 4E      N/A         35  32  89  E8      29.72F
$$

ORZ505-271510-
JOHN DAY BASIN

CITY            SKY/WX      TMP DP  RH  WIND    PRES   REMARKS
JOHN DAY        CLOUDY      35  33  92  E6      29.72F
#JOHN DAY KJDY  N/A         37  31  79  CALM    29.79R
#MONUMENT HS    N/A         37  34  89  CALM    29.75F
#MT. VERNON 5SE N/A         35  32  89  SE1     29.66F
#SPRAY SCHOOL   N/A         39  N/A N/A CALM    N/A
#WINLOCK        N/A         38  35  89  CALM    29.81F
$$

ORZ506-271510-
OCHOCO AND JOHN DAY HIGHLANDS

CITY            SKY/WX      TMP DP  RH  WIND    PRES   REMARKS
#BUCK CREEK DOT N/A         35  35  100 CALM    N/A
#HORSE RIDGE DO N/A         35  33  92  N1      N/A
#KEYES SMT DOT  N/A         33  31  92  CALM    N/A
#PAULINA SCHOOL N/A         33  31  92  CALM    29.71F
#PINE MTN OBS   N/A         29  28  96  W3      N/A
#PRAIRIE CITY   N/A         29  28  96  CALM    29.89F
#SENECA         N/A         30  N/A N/A CALM    N/A
#SENECA 9NW     N/A         29  28  96  CALM    29.76F
$$

ORZ049-271510-
GRANDE RONDE VALLEY

CITY            SKY/WX      TMP DP  RH  WIND    PRES   REMARKS
LA GRANDE       CLOUDY      36  27  69  CALM    29.74F
#COVE           N/A         30  30  100 CALM    29.78F
#COVE SCHOOL    N/A         30  29  96  CALM    29.75F
#ELGIN 3N       N/A         34  32  92  CALM    29.75F
#ELGIN 1E       N/A         35  31  85  CALM    N/A
#IMBLER SCHOOL  N/A         34  32  92  N3      29.73F
#ISLAND CITY 4N N/A         47  46  96  CALM    29.72F
#LADD CYN DOT   N/A         35  34  96  SE1     N/A
#UNION 1S       N/A         34  32  92  CALM    29.73F
$$

ORZ050-271510-
WALLOWA COUNTY

CITY            SKY/WX      TMP DP  RH  WIND    PRES   REMARKS
#ENTERPRISE HS  N/A         24  22  92  CALM    29.80F
#IMNAHA SCHOOL  N/A         33  31  92  SW2     29.82F
#IMNAHA 10S     N/A         47  28  47  S1      30.24S
#JOSEPH 3N      N/A         22  20  92  CALM    29.79F
#JOSEPH 3W      N/A         25  20  81  CALM    29.60F
#LOSTINE        N/A         26  24  92  CALM    29.65F
#MT HOWARD 8000 N/A         20  16  84  CALM    29.59F
#PROMISE 1S     N/A         32  31  96  CALM    29.93F
#SHEEP RDG 7000 N/A         22  18  84  CALM    29.88F
#WALLOWA SCHOOL N/A         26  25  96  CALM    30.82F



$$



USA.gov is the U.S. government's official web portal to all federal, state and local government web resources and services.